Location: Asheville, NC
(35.6000°N, 82.5500°W)
Time: 09:24:01
(UTC-04:00)

XW-2B - Pass Details

Date: 08 January 2018
Orbit: 511 x 528 km, 97.5° (Epoch: 17 July)

Event Time Altitude Azimuth Distance (km) Brightness Sun altitude
Rises 06:52:16 0° 5° (N) 2,654 ? -9.8°
Reaches altitude 10° 06:54:25 10° 0° (N) 1,759 ? -9.4°
Maximum altitude 06:58:05 50° 285° (WNW) 666 ? -8.7°
Drops below altitude 10° 07:01:43 10° 209° (SSW) 1,735 ? -8.0°
Sets 07:03:49 0° 204° (SSW) 2,615 ? -7.6°
